Location: Moscow
(44.4414°N, 72.7154°W)
Time: 06:44:54
(UTC+00:00)

Courier 1B - Visible Passes

Search period start: 17 February 2026 00:00
Search period end: 27 February 2026 00:00
Orbit: 962 x 1208 km, 28.3° (Epoch: 16 February)

Date Brightness Start Highest point End Pass type
(mag) Time Alt. Az. Time Alt. Az. Time Alt. Az.
17 Feb 9.6 00:13:26 10° S 00:16:51 14° SSE 00:17:54 13° SSE visible
17 Feb 10.1 02:04:15 10° SW 02:04:47 12° SW 02:04:47 12° SW visible
17 Feb 9.8 23:22:03 10° SSE 23:23:14 10° SSE 23:24:25 10° SE visible
18 Feb 9.5 01:10:53 10° SSW 01:14:23 19° S 01:14:23 19° S visible
19 Feb 9.3 00:17:43 10° SSW 00:22:24 18° SSE 00:23:56 17° SSE visible
19 Feb 10.0 02:09:49 10° SW 02:10:50 13° SW 02:10:50 13° SW visible
19 Feb 9.6 23:24:53 10° SSW 23:28:44 15° SSE 23:32:41 10° SE visible
20 Feb 9.3 01:16:14 10° SW 01:20:22 21° S 01:20:22 21° S visible
21 Feb 9.2 00:22:49 10° SW 00:28:00 21° S 00:29:53 19° SSE visible
21 Feb 10.0 02:15:43 10° SW 02:16:46 13° SW 02:16:46 13° SW visible
21 Feb 9.4 23:29:36 10° SSW 23:34:19 19° SSE 23:39:11 10° SE visible
22 Feb 9.3 01:21:59 10° SW 01:26:17 21° SSW 01:26:17 21° SSW visible
23 Feb 9.2 00:28:23 10° SW 00:33:39 22° S 00:35:47 19° SSE visible
23 Feb 10.1 02:22:01 10° SW 02:22:41 12° SW 02:22:41 12° SW visible
23 Feb 9.3 23:34:57 10° SW 23:39:57 21° S 23:45:10 10° SE visible
24 Feb 9.4 01:28:04 10° SW 01:32:11 19° SSW 01:32:11 19° SSW visible
25 Feb 9.3 00:34:19 10° SW 00:39:19 21° S 00:41:42 18° SSE visible
25 Feb 9.4 23:40:41 10° SW 23:45:38 21° S 23:50:47 10° SE visible
26 Feb 9.7 01:34:43 10° SW 01:38:08 15° SSW 01:38:08 15° SSW visible
